Location: Ajisawe
(8.4333°N, 4.3833°E)
Time: 00:13:07
(UTC+00:00)

Courier 1B Rocket - Pass Details

Date: 26 April 2021
Orbit: 920 x 1202 km, 28.3° (Epoch: 13 May)

Event Time Altitude Azimuth Distance (km) Brightness Sun altitude
Rises 03:05:08 0° 255° (WSW) 4,059 - -34.6°
Reaches altitude 10° 03:11:00 10° 221° (SW) 3,125 - -33.3°
Maximum altitude 03:12:48 11° 207° (SSW) 3,062 - -32.9°
Drops below altitude 10° 03:14:37 10° 193° (SSW) 3,128 - -32.4°
Exits shadow 03:18:21 - 170° (S) 3,623 7.9 -31.6°
Sets 03:20:33 0° 159° (SSE) 4,073 8.2 -31.1°
